| time (UTC) | temp F | wind direction | speed MPH | gust MPH | rain 1hr in | rain 24hr in | rain mn in | humidity % | barometer mb |
| 20260502163037 | 51 | 204 | 2.0 | 5.0 | 0.00 | 0.01 | 0.01 | 86 | 1011.3 |
| 20260502161554 | 51 | 216 | 3.0 | 6.0 | 0.00 | 0.01 | 0.01 | 86 | 1011.2 |
| 20260502151526 | 50 | 192 | 0.0 | 6.0 | 0.01 | 0.01 | 0.01 | 87 | 1011.8 |
| 20260502123043 | 51 | 256 | 0.0 | 3.0 | 0.00 | 0.00 | 0.00 | 83 | 1011.8 |
| 20260502121554 | 51 | 240 | 2.0 | 6.0 | 0.00 | 0.00 | 0.00 | 83 | 1012.4 |
| 20260502114544 | 51 | 278 | 2.0 | 4.0 | 0.00 | 0.00 | 0.00 | 83 | 1011.9 |
| 20260502113050 | 50 | 270 | 1.0 | 4.0 | 0.00 | 0.00 | 0.00 | 84 | 1011.7 |
| 20260502111503 | 49 | 297 | 0.0 | 2.0 | 0.00 | 0.00 | 0.00 | 85 | 1011.7 |
| 20260502110025 | 49 | 210 | 0.0 | 1.0 | 0.00 | 0.00 | 0.00 | 86 | 1011.4 |
| 20260502104546 | 48 | 210 | 0.0 | 2.0 | 0.00 | 0.00 | 0.00 | 86 | 1011.6 |
| 20260502103108 | 47 | 202 | 0.0 | 1.0 | 0.00 | 0.00 | 0.00 | 85 | 1011.5 |
| 20260502101522 | 47 | 202 | 0.0 | 0.0 | 0.00 | 0.00 | 0.00 | 84 | 1011.4 |
| 20260502100116 | 48 | 178 | 0.0 | 0.0 | 0.00 | 0.00 | 0.00 | 84 | 1011.3 |
| 20260502091518 | 49 | 235 | 0.0 | 3.0 | 0.00 | 0.00 | 0.00 | 82 | 1011.4 |
| 20260502071506 | 48 | 267 | 0.0 | 1.0 | 0.00 | 0.00 | 0.00 | 81 | 1011.3 |
| 20260502070038 | 48 | 202 | 0.0 | 3.0 | 0.00 | 0.00 | 0.00 | 80 | 1011.4 |
| 20260502064552 | 48 | 154 | 1.0 | 3.0 | 0.00 | 0.00 | 0.00 | 79 | 1011.5 |
| 20260502063025 | 48 | 194 | 0.0 | 2.0 | 0.00 | 0.00 | 0.00 | 78 | 1011.4 |
| 20260502061541 | 49 | 207 | 0.0 | 1.0 | 0.00 | 0.00 | 0.00 | 77 | 1011.5 |
| 20260502060004 | 49 | 197 | 0.0 | 2.0 | 0.00 | 0.00 | 0.00 | 76 | 1011.7 |
| 20260502054538 | 49 | 170 | 1.0 | 4.0 | 0.00 | 0.00 | 0.00 | 76 | 1011.5 |
| 20260502053111 | 50 | 259 | 0.0 | 6.0 | 0.00 | 0.00 | 0.00 | 75 | 1011.8 |
| 20260502051530 | 50 | 232 | 2.0 | 6.0 | 0.00 | 0.00 | 0.00 | 74 | 1012.0 |
| 20260502050048 | 50 | 265 | 0.0 | 4.0 | 0.00 | 0.00 | 0.00 | 74 | 1012.3 |
| 20260502044505 | 50 | 235 | 1.0 | 4.0 | 0.00 | 0.00 | 0.00 | 74 | 1012.3 |
| 20260502043037 | 50 | 233 | 0.0 | 4.0 | 0.00 | 0.00 | 0.00 | 74 | 1012.2 |
| 20260502041600 | 50 | 226 | 1.0 | 5.0 | 0.00 | 0.00 | 0.00 | 74 | 1012.1 |
| 20260502040038 | 50 | 264 | 2.0 | 6.0 | 0.00 | 0.00 | 0.00 | 73 | 1012.1 |
| 20260502034551 | 50 | 212 | 1.0 | 5.0 | 0.00 | 0.00 | 0.00 | 73 | 1012.3 |
| 20260502033031 | 50 | 231 | 2.0 | 6.0 | 0.00 | 0.00 | 0.00 | 73 | 1012.3 |
| 20260502031501 | 50 | 270 | 2.0 | 4.0 | 0.00 | 0.00 | 0.00 | 72 | 1012.2 |
| 20260502030052 | 50 | 264 | 1.0 | 7.0 | 0.00 | 0.00 | 0.00 | 72 | 1012.3 |
| 20260502024544 | 51 | 263 | 0.0 | 4.0 | 0.00 | 0.00 | 0.00 | 72 | 1012.3 |
| 20260502023008 | 51 | 244 | 1.0 | 4.0 | 0.00 | 0.00 | 0.00 | 71 | 1012.2 |
| 20260502021534 | 51 | 269 | 2.0 | 6.0 | 0.00 | 0.00 | 0.00 | 70 | 1011.9 |
| 20260502020004 | 51 | 246 | 2.0 | 6.0 | 0.00 | 0.00 | 0.00 | 70 | 1012.0 |
| 20260502014544 | 51 | 261 | 1.0 | 7.0 | 0.00 | 0.00 | 0.00 | 69 | 1012.1 |
| 20260502013104 | 51 | 267 | 2.0 | 8.0 | 0.00 | 0.00 | 0.00 | 69 | 1012.1 |
| 20260502011534 | 52 | 244 | 2.0 | 7.0 | 0.00 | 0.00 | 0.00 | 69 | 1012.1 |
| 20260502010050 | 52 | 234 | 2.0 | 9.0 | 0.00 | 0.00 | 0.00 | 69 | 1012.0 |
| 20260502004609 | 52 | 268 | 2.0 | 10.0 | 0.00 | 0.00 | 0.00 | 68 | 1011.7 |
| 20260502003028 | 53 | 271 | 4.0 | 10.0 | 0.00 | 0.00 | 0.00 | 67 | 1011.4 |
| 20260502001544 | 53 | 279 | 5.0 | 13.0 | 0.00 | 0.00 | 0.00 | 66 | 1011.1 |
| 20260502000018 | 54 | 250 | 3.0 | 12.0 | 0.00 | 0.00 | 0.00 | 66 | 1010.6 |
| 20260501234559 | 55 | 254 | 6.0 | 10.0 | 0.00 | 0.00 | 0.00 | 63 | 1010.4 |
| 20260501233016 | 56 | 248 | 2.0 | 9.0 | 0.00 | 0.00 | 0.00 | 57 | 1010.4 |
| 20260501231600 | 57 | 232 | 1.0 | 12.0 | 0.00 | 0.00 | 0.00 | 52 | 1010.2 |
| 20260501230026 | 59 | 212 | 2.0 | 7.0 | 0.00 | 0.00 | 0.00 | 44 | 1009.8 |
| 20260501224552 | 59 | 198 | 3.0 | 10.0 | 0.00 | 0.00 | 0.00 | 44 | 1009.8 |
| 20260501223033 | 60 | 271 | 5.0 | 13.0 | 0.00 | 0.00 | 0.00 | 42 | 1009.8 |
| 20260501221618 | 60 | 232 | 3.0 | 11.0 | 0.00 | 0.00 | 0.00 | 41 | 1009.7 |
| 20260501220032 | 60 | 265 | 6.0 | 15.0 | 0.00 | 0.00 | 0.00 | 41 | 1009.7 |
| 20260501214554 | 60 | 260 | 5.0 | 15.0 | 0.00 | 0.00 | 0.00 | 42 | 1009.6 |
| 20260501213016 | 60 | 278 | 4.0 | 15.0 | 0.00 | 0.00 | 0.00 | 42 | 1009.5 |
| 20260501211537 | 60 | 219 | 4.0 | 15.0 | 0.00 | 0.00 | 0.00 | 43 | 1009.4 |
| 20260501210059 | 60 | 267 | 7.0 | 12.0 | 0.00 | 0.00 | 0.00 | 42 | 1009.5 |
| 20260501204518 | 59 | 207 | 7.0 | 14.0 | 0.00 | 0.00 | 0.00 | 44 | 1009.6 |
| 20260501203058 | 59 | 216 | 4.0 | 15.0 | 0.00 | 0.00 | 0.00 | 48 | 1009.5 |
| 20260501201524 | 58 | 241 | 7.0 | 17.0 | 0.00 | 0.00 | 0.00 | 46 | 1009.3 |
| 20260501200046 | 59 | 246 | 4.0 | 15.0 | 0.00 | 0.00 | 0.00 | 48 | 1009.4 |
| 20260501194504 | 58 | 217 | 5.0 | 20.0 | 0.00 | 0.00 | 0.00 | 49 | 1009.5 |
| 20260501193040 | 58 | 219 | 7.0 | 16.0 | 0.00 | 0.00 | 0.00 | 48 | 1009.4 |
| 20260501191514 | 58 | 236 | 4.0 | 17.0 | 0.00 | 0.00 | 0.00 | 51 | 1009.6 |
| 20260501190038 | 58 | 261 | 9.0 | 18.0 | 0.00 | 0.00 | 0.00 | 51 | 1009.7 |
| 20260501184525 | 58 | 261 | 8.0 | 20.0 | 0.00 | 0.00 | 0.00 | 50 | 1009.9 |
| 20260501183054 | 57 | 221 | 7.0 | 18.0 | 0.00 | 0.00 | 0.00 | 52 | 1009.8 |
| 20260501181505 | 58 | 242 | 7.0 | 16.0 | 0.00 | 0.00 | 0.00 | 54 | 1009.9 |